| time (UTC) | temp F | wind direction | speed MPH | gust MPH | rain 1hr in | rain 24hr in | rain mn in | humidity % | barometer mb |
| 20260504180204 | 81 | 77 | 1.0 | 2.0 | 0.00 | 0.00 | 0.00 | 41 | 1016.5 |
| 20260504173204 | 80 | 26 | 0.0 | 3.0 | 0.00 | 0.00 | 0.00 | 41 | 1016.8 |
| 20260504171204 | 79 | 39 | 0.0 | 2.0 | 0.00 | 0.00 | 0.00 | 42 | 1017.0 |
| 20260504170203 | 78 | 94 | 1.0 | 3.0 | 0.00 | 0.00 | 0.00 | 44 | 1017.3 |
| 20260504160204 | 75 | 105 | 1.0 | 3.0 | 0.00 | 0.00 | 0.00 | 47 | 1017.9 |
| 20260504150204 | 69 | 43 | 0.0 | 0.0 | 0.00 | 0.00 | 0.00 | 52 | 1018.1 |
| 20260504130203 | 48 | 43 | 0.0 | 0.0 | 0.00 | 0.00 | 0.00 | 97 | 1018.4 |
| 20260504120203 | 44 | 43 | 0.0 | 0.0 | 0.00 | 0.00 | 0.00 | 95 | 1018.6 |
| 20260504100204 | 45 | 43 | 0.0 | 0.0 | 0.00 | 0.00 | 0.00 | 92 | 1017.9 |
| 20260504081203 | 46 | 43 | 0.0 | 0.0 | 0.00 | 0.00 | 0.00 | 89 | 1017.8 |
| 20260504080204 | 46 | 43 | 0.0 | 0.0 | 0.00 | 0.00 | 0.00 | 88 | 1017.9 |
| 20260504060204 | 49 | 43 | 0.0 | 0.0 | 0.00 | 0.00 | 0.00 | 82 | 1018.2 |
| 20260504050204 | 50 | 43 | 0.0 | 0.0 | 0.00 | 0.00 | 0.00 | 79 | 1018.6 |
| 20260504044204 | 51 | 43 | 0.0 | 0.0 | 0.00 | 0.00 | 0.00 | 78 | 1018.5 |
| 20260504043204 | 51 | 43 | 0.0 | 0.0 | 0.00 | 0.00 | 0.00 | 77 | 1018.6 |
| 20260504041204 | 52 | 43 | 0.0 | 0.0 | 0.00 | 0.00 | 0.00 | 75 | 1018.6 |
| 20260504040204 | 52 | 43 | 0.0 | 0.0 | 0.00 | 0.00 | 0.00 | 74 | 1018.6 |
| 20260504034204 | 53 | 43 | 0.0 | 0.0 | 0.00 | 0.00 | 0.00 | 72 | 1018.7 |
| 20260504033204 | 53 | 43 | 0.0 | 0.0 | 0.00 | 0.00 | 0.00 | 71 | 1018.7 |
| 20260504030205 | 54 | 43 | 0.0 | 0.0 | 0.00 | 0.00 | 0.00 | 68 | 1018.6 |
| 20260504024203 | 55 | 43 | 0.0 | 0.0 | 0.00 | 0.00 | 0.00 | 64 | 1018.5 |
| 20260504023204 | 56 | 43 | 0.0 | 0.0 | 0.00 | 0.00 | 0.00 | 63 | 1018.4 |
| 20260504021206 | 57 | 43 | 0.0 | 0.0 | 0.00 | 0.00 | 0.00 | 60 | 1018.2 |
| 20260504020204 | 58 | 43 | 0.0 | 0.0 | 0.00 | 0.00 | 0.00 | 58 | 1018.0 |
| 20260504014204 | 59 | 43 | 0.0 | 0.0 | 0.00 | 0.00 | 0.00 | 55 | 1017.9 |
| 20260504013204 | 60 | 43 | 0.0 | 0.0 | 0.00 | 0.00 | 0.00 | 56 | 1017.8 |
| 20260504011204 | 61 | 43 | 0.0 | 0.0 | 0.00 | 0.00 | 0.00 | 49 | 1017.6 |
| 20260504004204 | 63 | 43 | 0.0 | 0.0 | 0.00 | 0.00 | 0.00 | 47 | 1017.2 |
| 20260504003203 | 64 | 43 | 0.0 | 0.0 | 0.00 | 0.00 | 0.00 | 49 | 1017.0 |
| 20260504001203 | 65 | 43 | 0.0 | 0.0 | 0.00 | 0.00 | 0.00 | 50 | 1017.1 |
| 20260504000204 | 66 | 43 | 0.0 | 0.0 | 0.00 | 0.00 | 0.00 | 49 | 1017.2 |
| 20260503234204 | 67 | 43 | 0.0 | 0.0 | 0.00 | 0.00 | 0.00 | 47 | 1017.0 |
| 20260503233205 | 68 | 43 | 0.0 | 0.0 | 0.00 | 0.00 | 0.00 | 46 | 1016.9 |
| 20260503231204 | 69 | 43 | 0.0 | 0.0 | 0.00 | 0.00 | 0.00 | 44 | 1016.8 |
| 20260503230204 | 70 | 43 | 0.0 | 1.0 | 0.00 | 0.00 | 0.00 | 41 | 1016.9 |
| 20260503224204 | 72 | 347 | 0.0 | 1.0 | 0.00 | 0.00 | 0.00 | 39 | 1017.0 |
| 20260503223204 | 73 | 67 | 0.0 | 2.0 | 0.00 | 0.00 | 0.00 | 40 | 1017.2 |
| 20260503221204 | 74 | 64 | 0.0 | 2.0 | 0.00 | 0.00 | 0.00 | 38 | 1017.1 |
| 20260503220204 | 74 | 59 | 0.0 | 2.0 | 0.00 | 0.00 | 0.00 | 38 | 1017.2 |
| 20260503214204 | 74 | 311 | 0.0 | 1.0 | 0.00 | 0.00 | 0.00 | 36 | 1017.3 |
| 20260503213204 | 75 | 57 | 0.0 | 3.0 | 0.00 | 0.00 | 0.00 | 36 | 1017.5 |
| 20260503211203 | 75 | 121 | 0.0 | 1.0 | 0.00 | 0.00 | 0.00 | 35 | 1017.4 |
| 20260503210204 | 74 | 200 | 0.0 | 2.0 | 0.00 | 0.00 | 0.00 | 37 | 1017.6 |
| 20260503204204 | 74 | 0 | 0.0 | 2.0 | 0.00 | 0.00 | 0.00 | 38 | 1017.8 |
| 20260503203203 | 75 | 19 | 0.0 | 6.0 | 0.00 | 0.00 | 0.00 | 35 | 1017.9 |
| 20260503201205 | 75 | 83 | 1.0 | 6.0 | 0.00 | 0.00 | 0.00 | 39 | 1018.3 |
| 20260503200203 | 75 | 343 | 0.0 | 3.0 | 0.00 | 0.00 | 0.00 | 38 | 1018.3 |
| 20260503193204 | 74 | 118 | 0.0 | 3.0 | 0.00 | 0.00 | 0.00 | 40 | 1018.6 |
| 20260503191204 | 74 | 78 | 0.0 | 1.0 | 0.00 | 0.00 | 0.00 | 36 | 1019.0 |
| 20260503184204 | 73 | 304 | 0.0 | 5.0 | 0.00 | 0.00 | 0.00 | 39 | 1019.5 |
| 20260503183204 | 72 | 113 | 0.0 | 2.0 | 0.00 | 0.00 | 0.00 | 41 | 1019.6 |